STARLINK-36726, 67925

Orbit data source: Space-Track

STARLINK-36726, 67925 is a payload satellite owned by SpaceX/Seattle (US) in LEO that was launched on Sun, 22 Feb 2026 UTC via an FALCON 9 launch vehicle from the Air Force Eastern Test Range (AFETR). Payload-class satellites include a variety of spacecraft equipped with specific instruments for various scientific and technological missions. These include communications satellites like Starlink; space stations such as the ISS; scientific satellites like the Hubble; Earth observation satellites from companies like Planet Labs, Umbra, and HawkEye 360; GPS; miniature CubeSats for education and research; and military/defense satellites.

Loading next visibility...
Identifier
67925, 2026-036X
Orbit
LEO
Country
Flag of USUS
Related business
Manufacturer
SpaceX/Seattle
Mission
Operational spacecraft
Bus & Motor
STARLINK V2MO, Unknown motor
Mass
575 kg wet, ~530 kg dry
Launch date (UTC)
2026-02-22 (2 months ago)
Launch vehicle
FALCON 9
Launch site
Air Force Eastern Test Range (AFETR)
Object type
Payload
Rocket body
Debris
Shape & HBR
Unknown shape, 17.7 m
Radar Cross Section
RCS unknown

Expand to show TLE details & history
Last TLE update: 8 hours ago

TLE from 8 hours ago
0 STARLINK-36726
1 67925U 26036X   26104.20823219  .00006758  00000-0  25481-3 0  9995
2 67925  43.0012  44.7275 0001109 273.8668  86.2056 15.27587702  9157
Epoch: 2026-04-14T04:59Z
TLE epoch observation values (Epoch: 2026-04-14T04:59:51.261Z)
Latitude
-0.00006°
Longitude
127.37606°
Altitude
482.751 km
Speed
7.626 km/s
True Right ascension
02h 58m 54s
True Declination
0° 00' 00"
Sunlit
Object was in daylight at epoch
Visualization orbit readout
Latitude
Unknown
Longitude
Unknown
Altitude
Unknown
Speed
Unknown
Apparent Right ascension
Unknown
Apparent Declination
Unknown
Sunlit
N/A
Visualization observer readout
Local Sidereal Time
19:21:38
Azimuth
Unknown
Elevation
Unknown
Doppler factor
Unknown
Orbital elements
Apogee altitude
485.732 km
Perigee altitude
484.21 km
Semi-major axis
6,863.108 km
Eccentricity
0.00011
Inclination
43.0012°
RAAN
44.7275°
Arg. of periapsis
273.8668°
True anomaly
86.21828°
Mean anomaly
86.2056°
Eccentric anomaly
86.21194°
Mean motion
3.81735 °/min
Orbital period
94.31 mins
BSTAR
0.00025481
Loading maneuver chart data...
Computing Atmospheric mass density...
Loading historical data...
Loading historical data...
Loading historical data...
Loading historical data...
Loading historical data...
Loading historical data...
Loading historical data...

Documentation

Showing up to 5 results
|